Location: Hertford
(51.8000°N, 0.0667°W)
Time: 03:59:44
(UTC+00:00)

COSMO-SKYMED 1 - Pass Details

Date: 18 September 2020
Orbit: 621 x 623 km, 97.9° (Epoch: 19 October)

Event Time Altitude Azimuth Distance (km) Brightness Sun altitude
Rises 19:06:44 0° 8° (N) 2,918 6.1 -9.9°
Reaches altitude 10° 19:09:04 10° 359° (N) 2,006 5.4 -10.3°
Maximum altitude 19:13:01 35° 295° (WNW) 1,022 4.5 -10.9°
Drops below altitude 10° 19:16:57 10° 230° (SW) 1,992 5.6 -11.5°
Sets 19:19:15 0° 221° (SW) 2,893 6.3 -11.8°
